Location: Bergnershof
(48.9468°N, 10.9431°E)
Time: 23:02:41
(UTC+00:00)

Cosmos 2333 - Pass Details

Date: 03 March 2021
Orbit: 829 x 867 km, 70.9° (Epoch: 13 April)

Event Time Altitude Azimuth Distance (km) Brightness Sun altitude
Rises 18:31:01 0° 184° (S) 3,373 7.3 -15.2°
Reaches altitude 10° 18:33:33 10° 178° (S) 2,448 6.5 -15.6°
Maximum altitude 18:38:48 43° 108° (ESE) 1,180 4.5 -16.5°
Drops below altitude 10° 18:44:09 10° 39° (NE) 2,488 6.4 -17.4°
Sets 18:46:43 0° 33° (NNE) 3,434 7.1 -17.8°
